カタログに戻る

STARLINK-11598

運用中通信VLEO
NORAD 63113·PAYLOAD·🇺🇸 United States

打ち上げ Feb 27, 2025 から Cape Canaveral Space Force Station

Loading…

次のパス (今後24時間)

TLE

最新Source: CelesTrak SupGP

元期: Sep 15, 2026, 02:16 UTC

1 63113C 25039K   26258.09493056 -.00053133  00000+0 -41278-3 0  2581
2 63113  43.0005 175.2341 0001421 276.0590  71.9649 15.70859669    11

AllMySatでSTARLINK-11598をリアルタイム追跡

Download on the App Store